Probability
0 0 0 0 0 0 0 0 0 0 0 0 0 0 0 0 0 0 0 0 0 0 0 0 0 0 0 0 0 0 0 0 0 0 0 0 0 0 0 0 0 0 0
0 0 0 0 0 0 0 0 0 0 0 0 0 0 0 0 0 0 0 0 0 0 0 0 0 0 0 0 0 0 0 0 0 0 0 0 0 0 0 0 0 0 0
0 0 0 0 0 0 0 0 0 0 0 0 0 0 0 0 0 0 0 0 0 0 0 0 0 0 0 0 0 0 0 0 0 0 0 0 0 0 0 0 0 0 0
0 0 0 0 0 0 0 0 0 0 0 0 0 0 0 0 0 0 0 0 0 0 0 0 0 0 0 0 0 0 0 0 0 0 0 0 0 0 0 0 0 0 0
0 0 0 0 0 0 0 0 0 0 0 0 0 0 0 0 0 0 0 0 0 0 0 0 0 0 0 0 0 0 0 0 0 0 0 0 0 0 0 0 0 0 0
0 0 0 0 0 0 0 0 0 0 0 0 0 0 0 0 0 0 0 0 0 0 0 0 0 0 0 0 0 0 0 0 0 0 0 0 0 0 0 0 0 0 0
0 0 0 0 0 0 0 0 0 0 0 0 0 0 0 0 0 0 0 0 0 0 0 0 0 0 0 0 0 0 0 0 0 0 0 0 0 0 0 0 0 0 0
0 0 0 0 0 0 0 0 0 0 0 0 0 0 0 0 0 0 0 0 0 0 0 0 0 0 0 0 0 0 0 0 0 0 0 0 0 0 0 0 0 0 0
0 0 0 0 0 0 0 0 0 0 0 0 0 0 0 0 0 0 0 0 0 0 0 0 0 0 0 0 0 0 0 0 0 0 0 0 0 0 0 0 0 0 0
0 0 0 0 0 0 0 0 0 0 0 0 0 0 0 0 0 0 0 0 0 0 0 0 0 0 0 0 0 0 0 0 0 0 0 0 0 0 0 0 0 0 0
0 0 0 0 0 0 0 0 0 0 0 0 0 0 0 0 0 0 0 0 0 0 0 0 0 0 0 0 0 0 0 0 0 0 0 0 0 0 0 0 0 0 0
0 0 0 0 0 0 0 0 0 0 0 0 0 0 0 0 0 0 0 0 0 0 0 0 0 0 0 0 0 0 0 0 0 0 0 0 0 0 0 0 0 0 0
0 0 0 0 0 0 0 0 0 0 0 0 0 0 0 0 0 0 0 0 0 0 0 0 0 0 0 0 0 0 0 0 0 0 0 0 0 0 0 0 0 0 0
0 0 0 0 0 0 0 0 0 0 0 0 0 0 0 0 0 0 0 0 0 0 0 0 0 0 0 0 0 0 0 0 0 0 0 0 0 0 0 0 0 0 0
0 0 0 0 0 0 0 0 0 0 0 0 0 0 0 0 0 0 0 0 0 0 0 0 0 0 0 0 0 0 0 0 0 0 0 0 0 0 0 0 0 0 0
0 0 0 0 0 0 0 0 0 0 0 0 0 0 0 0 0 0 0 0 0 0 0 0 0 0 0 0 0 0 0 0 0 0 0 0 0 0 0 0 0 0 0
0 0 0 0 0 0 0 0 0 0 0 0 0 0 0 0 0 0 0 0 0 0 0 0 0 0 0 0 0 0 0 0 0 0 0 0 0 0 0 0 0 0 0
0 0 0 0 0 0 0 0 0 0 0 0 0 0 0 0 0 0 0 0 0 0 0 0 0 0 0 0 0 0 0 0 0 0 0 0 0 0 0 0 0 0 0
0 0 0 0 0 0 0 0 0 0 0 0 0 0 0 0 0 0 0 0 0 0 0 0 0 0 0 0 0 0 0 0 0 0 0 0 0 0 0 0 0 0 0
0 0 0 0 0 0 0 0 0 0 0 0 0 0 0 0 0 0 0 0 0 0 0 0 0 0 0 0 0 0 0 0 0 0 0 0 0 0 0 0 0 0 0
0 0 0 0 0 0 0 0 0 0 0 0 0 0 0 0 0 0 0 0 0 0 0 0 0 0 0 0 0 0 0 0 0 0 0 0 0 0 0 0 0 0 0
0 0 0 0 0 0 0 0 0 0 0 0 0 0 0 0 0 0 0 0 0 0 0 0 0 0 0 0 0 0 0 0 0 0 0 0 0 0 0 0 0 0 0
0 0 0 0 0 0 0 0 0 0 0 0 0 0 0 0 0 0 0 0 0 0 0 0 0 0 0 0 0 0 0 0 0 0 0 0 0 0 0 0 0 0 0
0 0 0 0 0 0 0 0 0 0 0 0 0 0 0 0 0 0 0 0 0 0 0 0 0 0 0 0 0 0 0 0 0 0 0 0 0 0 0 0 0 0 0
0 0 0 0 0 0 0 0 0 0 0 0 0 0 0 0 0 0 0 0 0 0 0 0 0 0 0 0 0 0 0 0 0 0 0 0 0 0 0 0 0 0 0
0 0 0 0 0 0 0 0 0 0 0 0 0 0 0 0 0 0 0 0 0 0 0 0 0 0 0 0 0 0 0 0 0 0 0 0 0 0 0 0 0 0 0
Height
5854 5853 5853 5852 5851 5850 5849 5848 5846 5844 5842 5840 5838 5835 5833 5830 5827 5825 5822 5820 5818 5816 5814 5812 5811 5810 5810 5810 5809 5810 5810 5810 5811 5812 5813 5814 5815 5817 5819 5821 5824 5826 5828
5852 5851 5851 5850 5849 5848 5847 5846 5844 5842 5840 5838 5836 5833 5831 5828 5825 5823 5820 5817 5815 5813 5811 5809 5808 5807 5807 5807 5807 5807 5807 5808 5808 5809 5810 5811 5812 5814 5816 5818 5820 5822 5824
5850 5849 5849 5848 5847 5846 5845 5843 5842 5840 5838 5836 5834 5831 5829 5826 5823 5820 5817 5815 5812 5810 5808 5806 5805 5804 5804 5804 5804 5804 5804 5805 5805 5806 5807 5808 5809 5810 5812 5814 5816 5817 5819
5847 5847 5847 5846 5845 5844 5842 5841 5839 5837 5835 5833 5831 5829 5826 5823 5821 5818 5815 5812 5809 5806 5804 5803 5801 5801 5801 5801 5801 5801 5801 5802 5802 5803 5804 5805 5806 5807 5808 5809 5811 5813 5814
5845 5844 5844 5843 5842 5841 5840 5838 5836 5834 5832 5830 5828 5826 5823 5821 5818 5815 5812 5809 5806 5804 5801 5799 5798 5797 5797 5797 5797 5798 5798 5798 5799 5800 5800 5801 5802 5802 5804 5805 5806 5807 5809
5842 5841 5841 5840 5839 5838 5837 5835 5833 5831 5829 5827 5825 5823 5820 5817 5814 5811 5808 5806 5803 5801 5799 5797 5795 5794 5794 5794 5794 5794 5794 5794 5795 5796 5796 5797 5797 5798 5799 5800 5801 5803 5804
5839 5838 5838 5837 5836 5835 5833 5832 5830 5828 5826 5824 5821 5819 5816 5813 5810 5808 5805 5802 5800 5798 5796 5794 5792 5791 5790 5790 5789 5790 5790 5790 5791 5791 5792 5792 5792 5793 5794 5795 5796 5797 5798
5835 5834 5834 5833 5832 5830 5829 5827 5826 5824 5822 5819 5817 5814 5812 5809 5806 5803 5801 5798 5796 5793 5791 5790 5788 5787 5786 5785 5785 5785 5785 5785 5785 5786 5786 5787 5787 5787 5788 5789 5789 5791 5792
5830 5830 5829 5828 5827 5826 5824 5823 5821 5819 5817 5814 5812 5809 5807 5804 5802 5799 5796 5794 5791 5789 5787 5785 5783 5782 5781 5780 5780 5780 5780 5780 5780 5780 5780 5780 5780 5780 5781 5782 5783 5784 5785
5825 5824 5824 5823 5822 5820 5819 5817 5815 5813 5811 5809 5806 5804 5801 5799 5796 5793 5791 5788 5786 5784 5782 5779 5778 5776 5775 5774 5774 5774 5774 5774 5773 5773 5773 5773 5773 5773 5774 5774 5775 5776 5777
5819 5818 5818 5817 5816 5814 5813 5811 5809 5807 5805 5803 5800 5798 5795 5792 5790 5787 5785 5782 5780 5777 5775 5773 5771 5770 5769 5767 5766 5766 5766 5766 5766 5765 5765 5765 5765 5765 5766 5766 5767 5767 5768
5814 5813 5811 5810 5809 5807 5806 5804 5802 5800 5798 5796 5793 5790 5788 5785 5782 5780 5777 5775 5772 5770 5768 5766 5764 5763 5761 5760 5758 5758 5757 5756 5756 5756 5756 5756 5756 5757 5757 5757 5757 5758 5758
5807 5806 5805 5803 5802 5800 5798 5796 5794 5792 5790 5787 5785 5782 5780 5777 5774 5772 5769 5766 5764 5762 5760 5757 5755 5754 5752 5751 5750 5748 5748 5747 5746 5745 5745 5746 5746 5746 5746 5747 5747 5748 5749
5800 5799 5797 5796 5794 5792 5790 5788 5786 5783 5781 5778 5776 5773 5771 5768 5765 5762 5760 5757 5755 5752 5750 5748 5746 5744 5742 5741 5740 5738 5737 5736 5736 5735 5734 5734 5734 5735 5735 5736 5736 5737 5738
5792 5791 5789 5788 5786 5784 5781 5779 5776 5773 5770 5768 5766 5763 5761 5758 5755 5752 5749 5747 5744 5742 5740 5738 5736 5734 5732 5731 5729 5728 5727 5726 5725 5724 5723 5723 5723 5723 5723 5724 5724 5725 5726
5784 5782 5780 5778 5776 5774 5772 5769 5766 5763 5760 5757 5755 5752 5749 5747 5744 5741 5738 5735 5732 5730 5728 5726 5725 5723 5721 5720 5718 5717 5716 5714 5713 5712 5711 5711 5711 5711 5711 5711 5712 5712 5713
5774 5772 5770 5768 5766 5763 5761 5758 5756 5753 5749 5746 5743 5740 5737 5735 5732 5729 5726 5723 5720 5718 5716 5714 5713 5711 5710 5708 5706 5705 5704 5702 5701 5700 5699 5699 5699 5698 5698 5698 5698 5698 5699
5763 5761 5759 5757 5755 5752 5749 5747 5744 5741 5738 5735 5731 5728 5725 5722 5719 5716 5713 5711 5709 5706 5704 5702 5701 5699 5697 5696 5694 5692 5691 5690 5689 5688 5687 5687 5686 5686 5685 5685 5685 5685 5685
5752 5750 5748 5745 5743 5740 5737 5734 5731 5728 5725 5722 5719 5715 5711 5709 5706 5703 5700 5698 5695 5693 5691 5689 5687 5686 5684 5682 5681 5680 5679 5678 5677 5676 5675 5674 5674 5673 5673 5673 5672 5672 5672
5740 5738 5735 5732 5730 5727 5724 5721 5717 5714 5711 5708 5705 5701 5698 5695 5692 5690 5687 5684 5682 5680 5678 5676 5674 5672 5670 5669 5667 5666 5666 5665 5664 5663 5662 5662 5661 5661 5660 5660 5660 5660 5659
5727 5725 5722 5719 5716 5713 5710 5707 5703 5700 5697 5693 5690 5687 5683 5680 5678 5675 5673 5670 5668 5665 5663 5662 5660 5658 5657 5655 5654 5653 5653 5652 5651 5650 5649 5649 5648 5648 5648 5647 5647 5647 5647
5714 5711 5708 5705 5702 5699 5696 5693 5689 5686 5682 5679 5676 5673 5669 5666 5663 5660 5658 5655 5653 5650 5648 5647 5645 5644 5643 5642 5641 5640 5639 5638 5637 5636 5636 5635 5635 5635 5635 5634 5634 5634 5634
5700 5697 5694 5691 5688 5685 5681 5678 5674 5671 5667 5664 5661 5658 5654 5651 5648 5645 5642 5640 5637 5635 5633 5631 5630 5629 5628 5627 5626 5625 5625 5624 5624 5623 5622 5622 5621 5621 5621 5621 5621 5621 5620
5686 5683 5680 5677 5674 5670 5667 5663 5659 5656 5652 5649 5646 5642 5639 5636 5632 5629 5627 5624 5622 5619 5617 5615 5614 5614 5613 5612 5611 5610 5610 5609 5609 5608 5608 5608 5608 5608 5607 5607 5607 5607 5607
5673 5669 5666 5662 5659 5655 5652 5648 5644 5641 5637 5634 5630 5627 5623 5620 5616 5613 5610 5608 5606 5604 5602 5600 5599 5598 5597 5597 5597 5596 5596 5595 5594 5594 5594 5594 5594 5594 5594 5594 5594 5594 5594
5658 5655 5651 5648 5644 5640 5637 5633 5629 5626 5622 5618 5614 5611 5607 5603 5600 5597 5594 5592 5590 5588 5586 5585 5584 5583 5583 5583 5582 5582 5581 5581 5580 5580 5580 5581 5581 5581 5581 5581 5581 5581 5582
Wind_Speed
6 7 8 9 9 10 10 11 11 12 12 13 15 15 15 15 15 15 14 14 13 12 12 12 11 11 10 9 8 8 8 8 9 10 11 12 13 14 16 17 18 20 20
7 8 9 9 10 10 11 11 12 13 13 14 15 16 16 16 16 16 15 15 14 14 13 12 11 11 10 10 10 9 9 9 10 10 11 12 13 14 16 17 18 19 20
8 8 9 9 10 11 11 12 13 13 14 14 15 16 16 17 17 17 16 16 16 15 14 13 12 12 11 11 10 10 10 10 10 11 11 12 14 15 16 17 19 19 20
9 9 9 10 10 11 12 12 13 14 15 15 16 16 17 17 17 17 17 17 17 16 15 13 13 12 11 11 11 11 11 11 11 12 12 13 14 15 16 17 19 20 20
10 10 10 10 11 12 12 13 14 15 15 16 17 17 18 18 18 18 17 17 17 16 15 14 13 12 12 12 11 11 11 12 12 13 13 14 15 16 17 18 19 20 21
10 11 11 12 12 13 14 14 15 16 16 17 18 18 19 19 19 19 18 17 17 16 15 15 14 14 13 13 13 13 13 13 14 14 15 16 16 17 18 19 20 20 22
11 12 13 13 14 14 15 16 16 17 17 18 19 20 20 20 20 20 19 19 18 17 17 16 16 15 15 15 15 14 14 15 16 16 16 17 18 18 19 20 21 21 23
13 14 14 15 16 16 17 17 18 18 19 20 20 21 21 21 20 21 21 20 19 19 18 18 17 17 17 17 17 17 17 17 18 18 19 19 20 20 21 22 23 23 24
16 16 16 17 18 18 18 19 19 20 20 21 22 22 22 22 22 22 22 21 21 21 20 20 19 19 19 19 20 20 20 20 20 21 22 22 23 23 23 24 24 25 25
18 19 19 19 19 20 21 21 22 22 23 23 23 23 23 23 24 24 23 23 23 23 23 22 22 21 21 22 23 22 22 22 23 23 24 25 26 26 26 26 27 27 27
20 21 21 22 22 22 23 23 24 24 24 25 25 25 25 26 26 26 26 25 25 25 25 25 24 24 24 24 25 24 24 25 25 25 26 26 27 27 28 28 29 29 29
21 22 23 24 24 25 25 26 26 27 27 27 27 28 28 28 28 28 28 28 28 28 28 27 27 27 27 27 27 26 27 28 28 28 28 28 28 29 29 30 30 30 31
23 24 25 25 26 27 27 28 29 29 30 30 30 30 30 30 30 30 30 30 30 30 30 31 30 30 30 29 29 28 29 29 30 30 30 30 31 31 31 32 33 33 33
25 26 27 27 28 28 29 30 31 32 32 33 33 32 32 33 33 33 33 33 33 32 32 32 32 32 32 31 31 31 31 31 31 32 31 31 32 32 33 33 34 34 34
28 28 29 29 30 31 32 32 33 34 34 35 35 36 35 35 36 36 36 36 36 35 34 34 34 34 33 33 33 33 33 33 33 33 33 32 32 33 33 34 35 35 35
30 31 31 32 32 33 34 35 35 36 37 38 38 39 39 39 39 39 39 38 37 37 36 35 35 35 35 35 35 34 35 35 34 34 34 33 33 33 34 34 35 36 36
33 33 34 35 35 36 37 38 38 39 40 41 41 41 42 41 41 40 40 40 39 38 37 36 36 36 36 36 36 36 36 35 35 35 34 34 34 34 35 35 36 36 37
36 36 37 38 39 40 40 40 41 41 42 43 43 43 43 43 43 42 41 41 40 40 39 38 38 38 38 38 38 37 36 36 36 35 35 35 35 35 35 35 36 36 37
38 39 40 41 41 42 42 43 43 44 44 44 44 44 44 44 44 43 43 42 41 41 40 40 39 39 39 39 39 38 38 37 37 36 36 36 35 35 34 34 35 35 36
40 41 42 43 43 44 44 45 45 45 46 46 45 45 45 44 44 43 43 43 43 42 41 41 40 40 39 39 38 38 38 38 38 38 37 37 36 36 36 35 35 35 35
42 43 44 44 45 45 46 46 46 47 47 46 45 45 45 45 45 44 44 44 44 43 42 42 42 41 40 39 39 39 39 39 38 38 38 37 37 37 37 36 36 36 36
44 45 45 46 46 47 47 48 48 48 47 47 46 46 46 46 46 45 45 45 45 44 44 43 43 42 42 41 41 40 40 39 39 39 39 38 38 38 37 37 37 37 36
45 46 46 47 48 48 48 49 49 49 48 48 47 47 47 47 47 47 46 46 45 45 45 44 44 43 42 42 42 41 41 40 39 39 38 38 38 37 37 37 37 37 36
46 47 47 48 49 49 49 49 49 49 48 48 48 48 49 49 48 48 47 47 46 45 45 45 44 43 43 42 41 40 40 40 39 39 39 38 37 37 37 37 37 37 36
47 48 48 48 49 49 49 49 48 48 49 49 49 49 50 49 49 48 48 47 46 45 44 43 42 42 41 41 41 40 40 40 39 39 38 37 37 37 36 36 36 36 35
48 49 49 49 49 49 49 49 49 49 49 50 50 50 50 49 49 48 47 46 45 44 43 42 41 40 40 40 40 40 39 39 39 39 37 36 36 36 36 36 35 34 34
Wind_Direction
297 303 309 313 316 320 322 327 330 330 331 334 336 338 339 338 335 333 330 328 328 325 319 314 308 301 296 297 295 287 276 264 254 248 246 241 238 237 235 234 233 232 232
293 299 304 308 312 315 318 321 324 326 328 329 332 334 335 335 333 331 329 327 326 324 319 312 306 301 296 293 291 286 280 269 260 255 251 246 243 241 240 239 238 236 236
290 298 302 306 309 312 317 319 322 324 325 326 328 331 332 333 331 329 328 327 326 324 319 312 303 299 296 291 288 283 279 272 263 257 255 252 248 246 245 244 242 242 240
287 293 299 304 308 311 315 318 321 322 324 324 325 328 329 330 330 329 326 325 324 322 318 312 305 297 294 291 286 281 278 273 266 261 259 256 253 250 249 247 246 246 246
285 291 295 301 305 309 313 316 318 320 322 323 324 326 327 328 328 328 325 322 323 321 318 314 309 299 293 290 285 281 278 275 269 265 262 260 257 255 252 251 251 250 249
283 288 294 299 303 306 309 313 316 318 319 320 321 323 324 324 325 325 323 320 320 319 316 313 308 301 294 289 284 280 277 275 272 268 266 264 261 259 256 255 254 253 253
284 289 294 298 301 304 307 310 313 314 316 317 317 318 320 321 320 321 321 317 316 314 313 309 305 299 294 288 283 277 277 275 272 270 268 266 264 262 259 256 255 256 256
286 290 294 298 300 303 304 307 309 311 311 312 314 315 315 316 317 318 317 315 314 312 310 308 303 296 291 288 283 277 276 275 274 273 270 268 266 264 262 260 257 258 257
284 287 292 295 297 299 302 304 306 308 309 311 311 311 312 313 313 314 314 312 312 310 308 306 301 296 292 289 284 279 277 277 277 275 272 270 268 266 264 262 261 260 259
285 287 289 292 294 296 299 301 303 305 307 308 309 309 308 309 310 310 310 308 307 306 305 303 299 295 292 290 285 281 279 278 277 275 274 272 270 268 267 265 264 263 261
284 287 289 290 292 294 296 298 300 302 304 306 306 306 305 305 305 305 306 306 304 303 302 300 297 294 291 290 286 282 281 279 278 277 275 273 271 269 268 267 266 265 264
284 287 289 291 292 292 294 296 298 299 301 302 303 303 304 303 303 303 302 302 301 299 300 298 295 292 291 290 286 284 282 280 279 277 275 273 271 270 268 268 267 266 264
284 287 289 291 292 293 294 294 296 298 299 300 300 301 301 301 301 301 300 300 299 298 297 296 294 291 289 288 285 284 281 280 280 278 276 273 272 271 269 268 267 266 265
284 287 289 290 291 293 294 294 295 296 297 298 298 299 299 300 300 300 299 298 298 297 297 295 294 292 288 288 287 284 282 281 281 280 277 275 273 271 270 269 268 267 265
285 287 288 289 290 292 293 294 295 296 296 297 297 298 298 299 298 299 298 297 296 295 294 294 293 291 288 286 286 284 283 283 282 280 279 277 276 274 273 271 269 267 265
286 287 289 290 291 292 293 294 295 295 295 296 296 296 297 297 298 297 297 297 295 294 292 291 290 290 289 287 286 285 283 283 282 281 279 278 277 275 274 273 272 270 268
287 287 289 290 290 292 293 294 294 294 294 295 295 295 296 296 297 296 296 295 294 293 291 290 288 288 288 286 285 285 283 283 282 282 281 279 277 276 275 274 273 271 270
286 287 288 289 290 291 293 293 293 293 294 294 294 294 295 295 295 295 295 295 294 291 289 288 287 287 287 287 285 284 283 283 282 282 281 280 279 278 277 276 275 273 271
285 286 287 289 290 291 292 293 293 293 294 294 293 293 293 293 294 294 294 293 293 291 288 287 286 286 286 286 285 283 282 282 282 281 280 279 278 277 276 276 276 275 273
286 287 288 289 290 291 292 292 293 293 294 294 294 293 292 292 292 292 292 291 291 290 288 286 285 284 286 285 284 283 282 282 281 280 279 277 276 276 275 274 274 274 273
287 288 289 290 290 290 291 292 293 293 293 294 294 293 292 291 291 291 290 290 289 289 287 285 283 282 283 283 282 282 282 281 280 279 277 276 275 275 274 274 272 272 272
288 289 290 290 290 291 291 292 292 293 293 293 293 293 292 291 291 290 290 289 288 287 286 284 282 280 280 281 281 280 281 280 279 278 277 275 275 275 274 274 273 272 272
289 289 289 290 290 291 292 292 293 293 293 292 292 292 292 292 292 291 290 289 288 287 285 283 281 280 279 279 280 279 279 279 278 277 277 275 274 274 273 273 273 273 272
289 290 291 291 291 292 293 293 293 293 293 292 292 292 292 292 292 290 290 289 288 286 285 283 280 279 278 277 278 278 277 277 277 277 276 275 274 274 273 272 272 272 271
290 291 291 292 292 293 293 293 293 293 293 293 292 292 292 292 291 290 289 288 286 285 284 282 279 278 277 276 276 276 277 276 276 276 275 274 274 273 272 272 272 271 270
289 290 291 292 292 293 293 293 293 293 293 293 293 292 292 292 291 289 287 286 285 284 283 281 279 277 276 275 275 275 276 276 275 275 274 273 272 272 272 271 270 269 266